PILOTS ONLINE: 444    ATC ONLINE: 52

KMEV - Minden Tahoe Airport

Location

City Minden
Country  United States
Latitude 39° 0' 1" N
Longitude 119° 45' 3" W
Elevation 4722 ft
Type Small Airport

Runways

12/30 5300 ft / 75 ft
12G/30G 2200 ft / 60 ft
16/34 7400 ft / 100 ft

Weather

METAR
2014/07/31 15:15
KMEV 311515Z AUTO 00000KT 10SM CLR 14/10 A3026 RMK AO2
TAF
No TAF available

Outbound flights

Inbound flights